Location: Cary
(35.7910°N, 78.7810°W)
Time: 12:28:07
(UTC-05:00)

N. Korean satellite - Pass Details

Date: 01 December 2021
Orbit: 447 x 491 km, 97.3° (Epoch: 25 January)

Event Time Altitude Azimuth Distance (km) Brightness Sun altitude
Rises 04:29:59 0° 35° (NE) 2,457 10.5 -31.2°
Reaches altitude 10° 04:32:59 10° 65° (ENE) 1,575 9.8 -30.6°
Maximum altitude 04:34:34 13° 93° (E) 1,408 9.7 -30.3°
Drops below altitude 10° 04:36:09 10° 122° (ESE) 1,567 9.9 -30.0°
Sets 04:39:06 0° 152° (SSE) 2,433 10.6 -29.4°
